Overview Statistics Trail Chart Weather Telemetry Raw packets
 

This is the latest recevied weather packets stored in our database for station/object SV9TNF-56. If no packets are shown the sender has not sent any weather packets the latest 10 day(s).

<< 28 29 30 31 32 33 34 >>
Time Temp. Humidity Pressure Rain* Wind** Luminosity Snow
1788463762 24.44° C 68% 1009.5 hPa 0 mm 4.47 m/s, 238° - -
1788463462 24.44° C 68% 1009.5 hPa 0 mm 12.96 m/s, 76° - -
1788463162 24.44° C 67% 1009.5 hPa 0 mm 13.86 m/s, 108° - -
1788462862 24.44° C 67% 1009.5 hPa 0 mm 13.86 m/s, 120° - -
1788462562 24.44° C 67% 1009.5 hPa 0 mm 6.26 m/s, 126° - -
1788462266 25° C 66% 1009.5 hPa 0 mm 7.6 m/s, 264° - -
1788461961 25° C 66% 1009.5 hPa 0 mm 6.26 m/s, 213° - -
1788461661 25° C 66% 1009.5 hPa 0 mm 20.56 m/s, 162° - -
1788461362 25° C 65% 1009.5 hPa 0 mm 9.83 m/s, 216° - -
1788461061 25° C 65% 1009.5 hPa 0 mm 16.54 m/s, 216° - -
1788460761 25° C 65% 1009.5 hPa 0 mm 19.22 m/s, 156° - -
1788460461 25° C 64% 1009.5 hPa 0 mm 12.96 m/s, 144° - -
1788460161 25° C 63% 1009.5 hPa 0 mm 12.96 m/s, 132° - -
1788459861 25° C 64% 1009.5 hPa 0 mm 9.83 m/s, 252° - -
1788459561 25° C 64% 1009.1 hPa 0 mm 8.05 m/s, 109° - -
1788459261 25° C 65% 1009.1 hPa 0 mm 17.88 m/s, 150° - -
1788458961 25° C 65% 1009.1 hPa 0 mm 12.07 m/s, 177° - -
1788458661 25° C 64% 1009.5 hPa 0 mm 10.28 m/s, 111° - -
1788458361 25° C 63% 1009.1 hPa 0 mm 15.2 m/s, 150° - -
1788458060 25° C 63% 1009.1 hPa 0 mm 12.52 m/s, 207° - -
1788457760 25° C 64% 1009.1 hPa 0 mm 16.09 m/s, 207° - -
1788457460 25° C 64% 1008.8 hPa 0 mm 8.49 m/s, 195° - -
1788457160 24.44° C 64% 1008.8 hPa 0 mm 16.09 m/s, 192° - -
1788456860 24.44° C 65% 1008.8 hPa 0 mm 8.05 m/s, 108° - -
1788456560 24.44° C 67% 1008.8 hPa 0 mm 6.26 m/s, 183° - -

* Rain latest hour (hover to see other rain measurements)
** Current wind speed in m/s (hover to see current wind gust speed)